Regional Weather Roundup
Issued by NWS Lake Charles, LA

Home | Current Version | Previous Version | Text Only | Print | Product List | Glossary On
Versions: 1 2 3 4 5 6 7 8 9 10 11 12 13 14 15 16 17 18 19 20 21 22 23 24 25 26 27 28 29 30 31 32 33 34 35 36 37 38 39 40 41 42 43 44 45 46 47 48 49 50
650
ASUS44 KLCH 290810
RWRLCH
REGIONAL WEATHER ROUNDUP
NATIONAL WEATHER SERVICE LAKE CHARLES LA
300 AM CDT FRI JUL 29 2016

Note: "fair" indicates few or no clouds below 12,000 feet with no
significant weather and/or obstructions to visibility.


ACROSS SOUTHEAST TEXAS

CITY           SKY/WX    TMP DP  RH WIND       PRES   REMARKS
BEAUMONT       PTCLDY    79  76  90 NE6       30.00S
BEAUMONT CITY  FAIR      78  74  90 E3        30.01S
ORANGE         PTSUNNY   75  73  92 CALM      30.03S
JASPER         PTCLDY    71  70  98 CALM      30.03F
$$

ACROSS CENTRAL LOUISIANA

CITY           SKY/WX    TMP DP  RH WIND       PRES   REMARKS
LEESVILLE      CLOUDY    72  71  97 S3        30.01F
FULLERTON      FAIR      72  70  93 CALM      30.00S
ALEXANDRIA INT CLOUDY    72  72 100 S5        30.00S
ESLER FIELD    CLOUDY    72  72 100 SW3       30.01F
DERIDDER       FAIR      72  71  96 CALM      30.04S
OAKDALE        MOSUNNY   72  71  98 CALM      30.02S
OPELOUSAS      FAIR      71  71  99 CALM      30.02S
$$

ACROSS SOUTHWEST AND SOUTH CENTRAL LOUISIANA

CITY           SKY/WX    TMP DP  RH WIND       PRES   REMARKS
SULPHUR        CLOUDY    76  73  90 CALM      30.02S
LAKE CHARLES   PTCLDY    75  73  93 NE3       30.01S
CHENNAULT INT  PTCLDY    74  72  95 CALM      30.02S
CAMERON PHI    MOSUNNY   79  77  94 E6        30.00S
DEQUINCY       FAIR      72  72 100 CALM      30.02F
JENNINGS       FAIR      73  72  94 CALM      30.02
LAFAYETTE      PTCLDY    76  74  93 CALM      30.02S
NEW IBERIA     CLEAR     76  74  93 CALM      30.02F
ABBEVILLE      FAIR      73  73 100 CALM      30.02S
PATTERSON      CLEAR     77  77 100 CALM      30.03R
SALT POINT       N/A     79  77  94 CALM      30.00S
$$

SELECTED SITES ACROSS THE REGION

CITY           SKY/WX    TMP DP  RH WIND       PRES   REMARKS
HOUSTON BUSH   CLOUDY    77  75  93 CALM      29.98F
HOUSTON HOBBY  MOCLDY    78  76  93 SE5       29.98F
GALVESTON      CLEAR     83  76  79 S8        30.00R
COLLEGE STAT   MOCLDY    77  75  93 SE3       29.99S
CONROE         CLOUDY    75  74  96 CALM      29.99F
HUNTSVILLE     CLOUDY    78  73  84 CALM      30.00R
LUFKIN         PTCLDY    72  71  97 SE5       30.00F
SHREVEPORT     CLOUDY    73  73 100 CALM      30.00R
MONROE         CLOUDY    73  73 100 SW7       30.01S
NATCHEZ MS     PTCLDY    72  70  94 S5        30.02F
BATON ROUGE    CLEAR     73  70  90 CALM      30.03S
N.O. INTL ARPT PTCLDY    82  73  74 CALM      30.01F
SLIDELL        CLEAR     73  72  96 CALM      30.02R
$$

MARINE REPORTS

STATION/POSITION TIME  SKY/WX   TEMP    WIND        PRES    VSBY
                                AIR SEA DIR/SP/G
                 (UTC)          (F)     (DEG/KT/KT) (MB)    (MI)
BUOY 30 S HIGH I 0750            85 86  170/ 10/ 12 1015.3S
WVE H/P(F/S)=  2/ 6

SEA RIM ST PARK  0800            84     170/  7/  9 1016.3F
PORT ARTHUR      0700               87  100/  4/  5 1016.1S
SABINE PASS N    0700            82 87  210/  4/  5 1017.3S
TEXAS POINT      NOT AVBL
CALCASIEU PASS   0700            78 86  100/  6/  8 1015.4R
LK CHARLES BEACH 0700            75 86              1016.9F
MARSH ISLAND     NOT AVBL
FRESH WATER LOCK 0700            83 86  190/  3/  4 1016.9S
AMERADA PASS     0700            81 88   CALM  /  1 1016.2R
$$




USA.gov is the U.S. government's official web portal to all federal, state and local government web resources and services.